Weather History for KHXD - November, 2012

Change the Weather History Date:

Wednesday, November 14, 2012

  Actual Average Record
Temperature  
Mean Temperature 52 °F -  
Max Temperature 53 °F 67 °F 82 °F (1955)
Min Temperature 50 °F 44 °F 26 °F (1977)
Degree Days  
Heating Degree Days 14    
Growing Degree Days 2 (Base 50)    
Moisture  
Dew Point 49 °F    
Average Humidity 87    
Maximum Humidity 100    
Minimum Humidity 77    
Precipitation  
Precipitation 0.00 in - - ()
Sea Level Pressure  
Sea Level Pressure 30.28 in    
Wind  
Wind Speed 12 mph (NNE)    
Max Wind Speed 16 mph    
Max Gust Speed 22 mph    
Visibility 10 miles    
Events      
Averages and records for this station are not official NWS values.
T = Trace of Precipitation, MM = Missing Value Source: NWS Daily Summary

Daily Weather History Graph

Daily Weather History Graph

Search for Another Location

Airport or City:

Trip Planner

Search our weather history database for the weather conditions in past years. The results will help you decide how hot, cold, wet, or windy it might be!

Date:

Astronomy

Nov. 14, 2012 Rise Set
Actual Time 6:51 AM EST 5:22 PM EST
Civil Twilight 6:25 AM EST 5:48 PM EST
Nautical Twilight 5:55 AM EST 6:18 PM EST
Astronomical Twilight 5:26 AM EST 6:47 PM EST
Moon 7:35 AM EST (11/14) 6:13 PM EST (11/14)
Length of Visible Light 11h 23m
Length of Day
10h 31m
New Moon, 1% of the Moon is Illuminated
Nov 14
New Moon
Nov 20
First Quarter
Nov 28
Full
Dec 6
Last Quarter
Dec 13
New

Hourly Weather History & Observations

Time (EST) Temp. Dew Point Humidity Pressure Visibility Wind Dir Wind Speed Gust Speed Precip Events Conditions
12:15 AM 53.6 °F 53.6 °F 100% 30.27 in 10.0 mi North 16.1 mph 20.7 mph 0.00 in   Overcast
12:35 AM 53.6 °F 53.6 °F 100% 30.27 in 10.0 mi North 13.8 mph 21.9 mph 0.00 in   Overcast
12:55 AM 53.6 °F 53.6 °F 100% 30.27 in 8.0 mi North 11.5 mph 18.4 mph 0.00 in   Overcast
1:15 AM 53.6 °F 53.6 °F 100% 30.27 in 7.0 mi North 11.5 mph 18.4 mph 0.00 in   Overcast
1:35 AM 53.6 °F 53.6 °F 100% 30.27 in 8.0 mi North 10.4 mph - 0.00 in   Overcast
1:55 AM 53.6 °F 53.6 °F 100% 30.27 in 10.0 mi North 12.7 mph 19.6 mph 0.00 in   Overcast
2:15 AM 53.6 °F 51.8 °F 94% 30.27 in 10.0 mi NNE 12.7 mph - 0.00 in   Overcast
2:35 AM 53.6 °F 51.8 °F 94% 30.27 in 10.0 mi NNE 13.8 mph 20.7 mph 0.00 in   Overcast
2:55 AM 53.6 °F 51.8 °F 94% 30.27 in 10.0 mi North 12.7 mph 17.3 mph 0.00 in   Overcast
3:15 AM 53.6 °F 51.8 °F 94% 30.27 in 10.0 mi NNE 11.5 mph 21.9 mph 0.00 in   Overcast
3:35 AM 53.6 °F 51.8 °F 94% 30.28 in 10.0 mi North 10.4 mph - 0.00 in   Overcast
3:55 AM 53.6 °F 51.8 °F 94% 30.28 in 10.0 mi North 11.5 mph 18.4 mph 0.00 in   Overcast
4:15 AM 51.8 °F 50.0 °F 94% 30.28 in 10.0 mi NNE 10.4 mph 16.1 mph 0.00 in   Overcast
4:35 AM 51.8 °F 48.2 °F 88% 30.28 in 10.0 mi North 10.4 mph - 0.00 in   Overcast
4:55 AM 51.8 °F 48.2 °F 88% 30.29 in 10.0 mi NNE 8.1 mph - 0.00 in   Overcast
5:15 AM 51.8 °F 48.2 °F 88% 30.30 in 10.0 mi NNE 11.5 mph 17.3 mph 0.00 in   Overcast
5:35 AM 51.8 °F 48.2 °F 88% 30.30 in 10.0 mi NNE 8.1 mph - 0.00 in   Overcast
6:50 AM 50.0 °F 46.4 °F 87% 30.31 in 7.0 mi North 11.5 mph 20.7 mph N/A   Overcast
7:50 AM 50.0 °F 46.4 °F 87% 30.34 in 10.0 mi North 11.5 mph 20.7 mph N/A   Overcast
9:50 AM 50.0 °F 46.4 °F 87% 30.36 in 10.0 mi NNE 11.5 mph - N/A   Overcast
11:50 AM 51.8 °F 46.4 °F 82% 30.34 in 10.0 mi North 11.5 mph 17.3 mph N/A   Overcast
12:50 PM 51.8 °F 46.4 °F 82% 30.31 in 10.0 mi North 13.8 mph - N/A   Overcast
1:50 PM 53.6 °F 46.4 °F 77% 30.30 in 10.0 mi North 13.8 mph - N/A   Mostly Cloudy
2:50 PM 53.6 °F 48.2 °F 82% 30.29 in 10.0 mi NNE 11.5 mph - N/A   Overcast
3:50 PM 53.6 °F 48.2 °F 82% 30.27 in 10.0 mi NNE 13.8 mph - N/A   Overcast
4:50 PM 53.6 °F 48.2 °F 82% 30.27 in 10.0 mi NNE 11.5 mph - N/A   Overcast
5:50 PM 51.8 °F 46.4 °F 82% 30.28 in 10.0 mi NNE 8.1 mph - N/A   Overcast
6:50 PM 53.6 °F 46.4 °F 77% 30.28 in 10.0 mi NNE 11.5 mph - N/A   Overcast
7:50 PM 53.6 °F 46.4 °F 77% 30.30 in 10.0 mi NNE 10.4 mph - N/A   Overcast
8:15 PM 53.6 °F 46.4 °F 77% 30.29 in 10.0 mi North 12.7 mph 19.6 mph 0.00 in   Overcast
8:35 PM 53.6 °F 46.4 °F 77% 30.29 in 10.0 mi North 11.5 mph 18.4 mph 0.00 in   Overcast
8:55 PM 53.6 °F 46.4 °F 77% 30.29 in 10.0 mi North 12.7 mph 17.3 mph 0.00 in   Overcast
9:15 PM 53.6 °F 46.4 °F 77% 30.29 in 10.0 mi North 11.5 mph 19.6 mph 0.00 in   Overcast
9:35 PM 53.6 °F 46.4 °F 77% 30.29 in 10.0 mi NNE 10.4 mph - 0.00 in   Overcast
9:55 PM 53.6 °F 46.4 °F 77% 30.28 in 10.0 mi North 12.7 mph 20.7 mph 0.00 in   Overcast
10:15 PM 53.6 °F 46.4 °F 77% 30.27 in 10.0 mi North 12.7 mph 19.6 mph 0.00 in   Overcast
10:35 PM 51.8 °F 46.4 °F 82% 30.27 in 10.0 mi North 10.4 mph 19.6 mph 0.00 in   Overcast
10:55 PM 51.8 °F 46.4 °F 82% 30.27 in 10.0 mi NNE 12.7 mph - 0.00 in   Overcast
11:15 PM 51.8 °F 46.4 °F 82% 30.25 in 10.0 mi North 11.5 mph 17.3 mph 0.00 in   Overcast
11:35 PM 51.8 °F 46.4 °F 82% 30.25 in 10.0 mi NNE 10.4 mph - 0.00 in   Overcast
11:55 PM 51.8 °F 48.2 °F 88% 30.24 in 10.0 mi NNE 9.2 mph - 0.00 in   Overcast